Location: Peterborough
(44.3091°N, 78.3197°W)
Time: 17:07:13
(UTC-04:00)

Explorer 7 - Pass Details

Date: 26 March 2023
Orbit: 477 x 653 km, 50.3° (Epoch: 04 June)

Event Time Altitude Azimuth Distance (km) Brightness Sun altitude
Rises 16:25:51 0° 204° (SSW) 2,935 11.3 31.3°
Reaches altitude 10° 16:28:32 10° 191° (S) 2,007 10.4 30.8°
Maximum altitude 16:32:17 25° 137° (SE) 1,255 8.7 30.3°
Drops below altitude 10° 16:35:55 10° 82° (E) 1,934 9.2 29.7°
Sets 16:38:26 0° 69° (ENE) 2,803 9.9 29.3°
